Vertical_Velocity
-2 -3 -3 -4 -4 -3 -3 -3 -3 -3 -4 -4 -4 -4 -4 -3 -3 -3 -2 -2 -3 -4 -4 -4 -4 -3 -2 -1 -1 -1 -0 1 1 2 2 3 2 2 2 2 2 2 1 1 2 2 2 2 1 1 1 1 1 1 1 0 0 1 0 -0 -1 -1 -0 1 1 2 2 1 0
-2 -1 -1 -2 -3 -3 -2 -2 -2 -2 -3 -3 -3 -4 -3 -3 -3 -2 -2 -2 -3 -4 -4 -4 -2 -2 -1 -0 0 0 -0 0 1 1 2 2 2 2 1 1 1 1 1 1 1 2 2 2 1 1 1 2 2 2 1 1 1 1 0 -0 -1 -0 1 2 2 2 2 2 1
-2 -1 -1 -1 -2 -3 -3 -3 -3 -2 -2 -2 -2 -3 -2 -2 -2 -2 -2 -2 -2 -2 -3 -3 -2 -1 -1 -1 0 1 1 1 0 0 0 1 1 1 1 0 0 1 1 1 1 1 1 1 1 1 2 2 2 3 3 2 1 0 0 -0 -0 0 1 2 3 3 2 2 2
-1 -2 -2 -2 -3 -3 -3 -3 -3 -2 -2 -2 -2 -2 -1 -1 -1 -1 -2 -2 -2 -2 -2 -2 -3 -3 -2 -3 -1 0 1 2 1 0 -0 -0 0 1 1 0 0 0 1 1 1 1 1 1 1 1 2 3 3 4 4 3 1 0 0 0 1 1 2 2 2 2 2 2 2
-1 -2 -2 -3 -3 -3 -3 -2 -2 -2 -2 -1 -1 -1 -1 -0 -0 -1 -2 -3 -3 -2 -2 -2 -3 -4 -3 -2 -2 -1 0 1 1 1 0 -0 0 1 1 2 2 1 1 2 2 2 1 1 1 2 3 4 4 4 4 2 1 0 -0 -0 0 1 1 2 1 1 1 1 1
-3 -3 -3 -3 -2 -2 -2 -1 -1 -0 -1 -0 -0 0 0 0 0 -1 -2 -4 -3 -3 -3 -4 -3 -3 -2 -2 -1 -1 -1 0 1 1 1 0 1 2 2 3 3 3 3 3 3 2 2 1 1 2 4 5 5 4 3 1 0 -1 -1 -1 -0 1 1 0 -0 -0 -0 0 1
-4 -4 -4 -3 -2 -1 -0 0 0 0 0 0 0 0 0 0 -1 -2 -3 -4 -4 -5 -4 -4 -2 -2 -1 -1 -2 -1 -1 0 1 1 1 1 2 2 3 3 4 4 4 4 3 3 2 1 2 3 5 7 5 4 2 0 -2 -3 -3 -1 0 0 -1 -1 -0 -0 0 0 1
-3 -2 -2 -1 -1 -0 0 0 0 0 0 0 -0 -0 -1 -1 -3 -4 -5 -5 -5 -4 -4 -2 -1 -0 -0 -1 -1 -1 -1 -1 -1 -0 1 1 1 2 2 2 2 3 3 3 2 2 2 1 1 3 4 4 2 1 0 -2 -5 -6 -3 0 1 1 0 0 1 1 0 -0 0
-2 -1 -0 0 1 1 0 0 -0 -0 -0 -0 -0 -1 -2 -3 -4 -6 -6 -5 -3 -2 -2 -2 -1 -1 -1 -1 -2 -3 -3 -3 -2 -1 0 2 1 1 1 2 2 2 2 2 2 1 1 1 2 3 4 2 -1 -3 -5 -7 -8 -6 -2 1 2 2 3 3 2 2 1 -0 -0
-1 -1 -0 0 0 0 0 0 -0 -0 -0 -0 -0 -1 -2 -3 -5 -5 -5 -4 -2 -2 -2 -3 -3 -3 -3 -3 -4 -4 -4 -3 -2 -2 -0 1 2 3 4 5 6 7 7 5 4 4 3 3 5 5 3 -1 -3 -6 -8 -9 -7 -3 -0 2 2 3 4 4 4 4 5 4 2
-1 -1 -1 -1 -1 -1 -1 -0 -1 -1 -1 -0 -1 -1 -2 -4 -5 -4 -3 -2 -2 -2 -2 -3 -5 -5 -6 -6 -6 -6 -5 -3 -2 -1 0 3 5 6 8 9 11 12 11 8 7 5 4 3 2 0 -3 -6 -7 -7 -6 -4 -2 0 2 3 4 5 6 7 9 10 9 5 1
-1 -1 -1 -1 -1 -1 -1 -1 -1 -1 -1 -1 -1 -2 -3 -5 -5 -4 -3 -2 -2 -3 -3 -4 -5 -6 -7 -7 -7 -6 -5 -3 -0 2 4 8 10 12 12 12 11 10 7 3 -1 -3 -5 -7 -8 -8 -7 -5 -3 -1 -0 1 2 3 4 6 8 10 12 13 11 7 2 -2 -3
-1 -2 -2 -2 -2 -2 -2 -2 -1 -1 -2 -2 -2 -3 -4 -5 -5 -5 -4 -3 -4 -4 -4 -4 -5 -6 -7 -7 -6 -6 -4 -2 1 4 8 13 15 16 15 13 9 4 -2 -10 -16 -19 -19 -16 -12 -8 -3 1 3 3 3 4 5 7 9 13 15 16 15 9 2 -4 -6 -5 -3
-2 -2 -2 -2 -2 -2 -2 -2 -2 -2 -2 -3 -3 -4 -5 -5 -5 -4 -4 -4 -4 -5 -5 -5 -5 -5 -5 -5 -5 -4 -3 -1 1 4 9 15 19 20 19 16 8 -2 -10 -17 -21 -22 -19 -13 -6 -1 4 7 6 6 5 7 9 13 17 20 17 11 5 -1 -4 -4 -1 2 3
-3 -2 -2 -3 -3 -3 -3 -3 -2 -3 -3 -3 -4 -4 -5 -6 -5 -4 -4 -4 -4 -4 -4 -5 -5 -4 -3 -3 -3 -3 -1 0 2 6 13 22 26 26 23 18 10 -1 -10 -14 -14 -12 -9 -4 1 6 8 9 8 8 8 10 14 17 17 14 8 3 0 -1 1 3 3 3 3
-3 -3 -3 -3 -3 -3 -3 -3 -3 -3 -3 -4 -4 -5 -5 -6 -5 -5 -5 -5 -5 -4 -3 -4 -5 -5 -4 -3 -2 -1 0 2 4 11 20 32 30 25 18 14 12 7 1 -4 -3 -1 2 5 9 10 10 8 6 7 10 12 13 13 11 7 4 3 3 4 4 3 2 1 1
-4 -4 -4 -4 -3 -3 -2 -2 -3 -3 -4 -4 -4 -5 -5 -6 -5 -5 -5 -5 -5 -4 -3 -3 -4 -5 -5 -4 -2 -1 -0 1 3 13 25 36 26 16 9 7 9 11 11 8 7 7 8 10 10 8 5 4 4 5 6 8 8 7 6 4 3 2 3 3 2 2 1 1 2
-4 -4 -4 -4 -3 -3 -2 -3 -3 -3 -3 -4 -4 -5 -5 -6 -5 -4 -4 -4 -4 -5 -5 -3 -3 -4 -4 -4 -2 -1 -1 -1 1 11 25 34 22 12 6 4 4 7 10 11 8 6 4 4 3 1 0 0 2 3 3 3 2 2 1 0 1 1 2 2 2 2 3 5 5
-5 -5 -5 -5 -4 -3 -3 -3 -3 -3 -4 -4 -5 -5 -5 -6 -5 -4 -4 -3 -3 -5 -6 -4 -3 -3 -3 -2 -1 -0 -1 -2 -2 7 19 29 19 11 5 2 1 4 8 8 6 4 2 -0 -1 -2 -2 -1 2 4 4 4 3 1 1 1 1 1 2 3 3 4 5 6 6
-6 -6 -6 -5 -4 -4 -4 -4 -4 -4 -4 -4 -4 -5 -5 -6 -5 -5 -4 -3 -3 -4 -5 -4 -4 -3 -2 -1 -0 -0 -1 -3 -3 3 12 20 14 9 7 5 6 10 14 15 14 12 9 3 0 -0 1 3 4 6 7 7 5 4 2 2 2 3 4 4 5 5 5 5 4
-6 -6 -5 -5 -4 -5 -5 -5 -5 -4 -4 -4 -4 -5 -5 -5 -5 -5 -4 -3 -3 -3 -4 -4 -4 -4 -3 -2 -2 -1 -1 -3 -3 1 6 12 9 8 10 15 22 26 26 22 22 21 18 12 8 7 8 8 8 7 6 6 4 3 3 3 4 5 6 6 5 5 4 3 2
-6 -5 -5 -4 -4 -5 -5 -5 -4 -4 -4 -4 -4 -4 -5 -5 -4 -4 -4 -3 -2 -2 -3 -3 -4 -3 -3 -3 -3 -2 -1 -2 -1 1 4 8 8 7 9 14 32 39 38 32 29 26 24 20 17 15 12 9 6 3 2 2 3 4 5 6 7 7 6 6 5 4 4 3 2
-5 -4 -4 -4 -4 -5 -5 -4 -4 -3 -3 -3 -4 -4 -4 -4 -4 -3 -3 -2 -2 -2 -2 -3 -3 -3 -3 -3 -2 -2 -2 -3 -2 0 3 5 6 6 5 4 21 34 40 36 33 30 27 24 21 16 11 5 1 1 2 4 5 6 6 6 6 5 4 3 3 4 4 4 3
-4 -4 -3 -4 -4 -4 -4 -4 -3 -3 -3 -4 -4 -4 -4 -4 -4 -4 -3 -2 -2 -2 -2 -2 -2 -2 -2 -3 -2 -2 -3 -4 -4 -3 -1 1 3 4 3 -1 3 16 30 33 24 21 21 20 17 13 8 1 -0 1 3 4 5 5 4 4 3 3 2 2 2 2 3 4 4
-3 -3 -3 -4 -4 -4 -4 -4 -3 -3 -4 -4 -4 -4 -4 -3 -4 -4 -4 -3 -2 -2 -2 -2 -1 -1 -2 -4 -3 -3 -3 -5 -6 -6 -5 -4 -1 0 1 -2 -5 -1 9 23 17 12 10 11 11 9 7 3 2 3 3 3 3 3 3 3 3 3 2 3 2 2 1 1 2
-3 -3 -3 -4 -4 -4 -4 -4 -4 -4 -4 -4 -4 -3 -3 -3 -3 -4 -4 -3 -3 -2 -2 -1 -1 -1 -2 -3 -4 -4 -4 -5 -7 -7 -7 -6 -5 -4 -3 -3 -7 -7 -4 5 7 6 5 6 6 7 7 7 6 5 4 3 3 3 3 3 3 3 3 3 3 3 1 -0 1
-2 -3 -3 -4 -4 -4 -4 -4 -4 -4 -3 -3 -4 -4 -3 -3 -2 -2 -2 -3 -3 -2 -1 -1 -1 -1 -2 -2 -4 -5 -6 -6 -7 -8 -8 -7 -6 -6 -5 -4 -7 -7 -5 1 3 3 2 3 4 5 6 6 5 4 3 2 2 2 2 2 2 2 2 2 3 3 3 1 0
-2 -3 -3 -4 -4 -4 -3 -4 -4 -4 -4 -4 -4 -3 -3 -2 -1 -1 -1 -2 -2 -2 -1 -1 -1 -2 -2 -2 -3 -5 -5 -6 -8 -9 -8 -7 -6 -6 -7 -6 -8 -7 -4 1 2 2 1 1 1 2 3 3 3 2 1 0 0 1 1 1 1 0 0 0 1 1 2 2 1
-3 -3 -3 -3 -3 -4 -4 -4 -4 -5 -4 -4 -3 -2 -2 -2 -2 -1 -0 -0 -1 -2 -2 -2 -2 -2 -2 -3 -3 -3 -4 -5 -7 -8 -8 -8 -7 -8 -8 -8 -9 -6 -3 0 -0 -0 -0 -1 -0 -0 0 1 1 1 0 -0 -0 -1 -1 -1 -1 -1 -1 -1 -1 -1 0 1 1
-3 -3 -3 -3 -3 -4 -4 -4 -5 -5 -5 -3 -2 -2 -2 -2 -2 -1 -1 -1 -2 -3 -3 -2 -1 -1 -2 -2 -2 -2 -3 -4 -5 -6 -7 -8 -7 -8 -8 -8 -8 -3 1 0 -2 -2 -2 -2 -2 -2 -2 -2 -2 -2 -2 -2 -2 -2 -2 -3 -3 -3 -3 -2 -2 -2 -2 -2 -1
-3 -3 -2 -2 -3 -3 -4 -5 -5 -5 -4 -2 -1 -1 -2 -2 -3 -3 -2 -2 -2 -2 -2 -1 0 1 1 0 -1 -1 -2 -3 -4 -5 -6 -7 -7 -6 -5 -5 -4 3 7 -0 -1 -2 -4 -4 -4 -4 -4 -4 -4 -4 -4 -3 -3 -3 -4 -4 -4 -4 -4 -4 -3 -3 -3 -3 -4
-3 -2 -1 -1 -2 -3 -3 -4 -5 -5 -4 -3 -2 -1 -1 -2 -3 -3 -2 -1 -1 -1 -1 -1 -0 0 1 1 -0 -1 -2 -3 -4 -4 -5 -5 -5 -4 -2 -1 -2 5 10 1 -0 -1 -3 -4 -4 -4 -4 -5 -5 -5 -4 -4 -4 -4 -4 -4 -4 -5 -5 -5 -5 -4 -3 -3 -4
-2 -1 -1 -0 -1 -2 -3 -4 -4 -4 -4 -3 -2 -1 -1 -1 -1 -1 -2 -2 -2 -2 -2 -2 -2 -2 -1 -1 -1 -2 -3 -4 -4 -4 -4 -4 -3 -2 -0 1 -2 4 10 9 2 -1 -1 -2 -3 -3 -3 -4 -4 -4 -4 -4 -4 -4 -4 -4 -4 -5 -5 -6 -6 -5 -4 -3 -4
-2 -1 -0 0 -0 -1 -3 -4 -4 -4 -4 -3 -2 -1 -1 0 -0 -1 -2 -3 -3 -3 -3 -2 -2 -2 -2 -2 -2 -2 -3 -3 -3 -3 -4 -4 -3 -2 -0 1 -0 2 9 22 4 -1 -1 -2 -2 -2 -2 -2 -3 -3 -3 -4 -4 -4 -4 -4 -5 -5 -6 -6 -6 -6 -4 -3 -4
-2 -1 -0 0 -0 -1 -2 -3 -4 -4 -4 -3 -2 -2 -1 -1 -1 -1 -1 -2 -2 -2 -2 -1 -1 -1 -1 -1 -1 -2 -2 -3 -4 -4 -4 -4 -3 -2 -1 1 1 2 10 29 8 -1 -1 -0 -2 -3 -3 -2 -2 -3 -3 -4 -5 -5 -5 -5 -5 -5 -6 -6 -6 -6 -5 -4 -5
-3 -1 -0 -0 -0 -1 -1 -2 -3 -4 -3 -3 -2 -2 -2 -1 -1 -0 -0 -1 -1 -1 -1 -1 -1 -0 -0 -0 -1 -1 -2 -3 -3 -4 -4 -3 -3 -3 -2 -1 1 2 8 24 13 3 -3 -1 -1 -2 -4 -4 -4 -3 -4 -5 -5 -6 -6 -6 -6 -6 -5 -5 -6 -6 -6 -5 -6
-3 -2 -1 -1 -1 -2 -2 -2 -3 -3 -3 -3 -2 -3 -3 -3 -2 -1 -0 0 0 -1 -1 -2 -1 -1 -1 -1 -1 -2 -2 -2 -2 -3 -3 -3 -3 -4 -3 -3 -1 1 3 10 17 9 -3 -5 -1 -0 -2 -4 -4 -4 -4 -4 -5 -5 -5 -5 -5 -5 -4 -4 -4 -5 -5 -5 -6
-3 -3 -2 -2 -2 -2 -2 -2 -2 -2 -2 -2 -3 -3 -4 -3 -3 -2 -2 -1 -1 -1 -2 -2 -2 -2 -2 -2 -2 -2 -2 -2 -2 -2 -2 -3 -3 -4 -4 -3 -2 -1 -0 1 13 13 5 -6 -5 -2 0 -1 -3 -3 -3 -3 -4 -4 -3 -3 -2 -2 -2 -2 -2 -3 -3 -4 -4
-4 -3 -2 -2 -2 -2 -3 -3 -2 -2 -1 -2 -3 -3 -3 -3 -4 -4 -3 -2 -1 -1 -1 -2 -3 -3 -3 -2 -2 -2 -2 -1 -1 -1 -2 -2 -3 -3 -4 -3 -3 -2 -1 -1 3 10 12 5 -6 -7 -3 1 -0 -2 -3 -3 -3 -2 -2 -1 -1 -0 0 0 -0 -1 -1 -1 -2
-3 -3 -3 -2 -2 -2 -3 -3 -2 -2 -1 -2 -2 -2 -3 -4 -4 -4 -3 -2 -1 -0 -0 -1 -2 -3 -2 -2 -2 -2 -1 -1 -1 -1 -1 -1 -2 -2 -3 -2 -2 -2 -2 -2 -3 0 6 11 1 -6 -7 -1 0 -1 -2 -3 -2 -2 -1 -1 -1 -0 0 1 1 1 0 -0 -1
-2 -2 -2 -2 -2 -3 -3 -3 -3 -2 -2 -2 -1 -2 -3 -5 -4 -3 -2 -1 -1 -0 0 -0 -1 -2 -2 -1 -1 -1 -1 -1 -1 -1 -1 -1 -1 -2 -2 -1 -1 -0 -1 -2 -3 -4 -2 2 5 0 -6 -6 -2 -0 -1 -2 -3 -2 -2 -3 -2 -2 -1 -0 0 1 1 0 -0
Height
3020 3016 3012 3009 3006 3002 2999 2996 2993 2989 2986 2983 2980 2977 2974 2971 2968 2965 2962 2959 2956 2953 2950 2947 2944 2942 2939 2936 2933 2930 2927 2925 2923 2920 2918 2916 2915 2913 2912 2911 2910 2910 2909 2909 2908 2908 2908 2908 2907 2907 2907 2908 2908 2908 2908 2908 2908 2908 2908 2907 2907 2908 2908 2908 2908 2908 2908 2908 2907
3018 3015 3011 3008 3004 3001 2997 2994 2991 2988 2985 2981 2978 2975 2972 2969 2966 2963 2960 2957 2954 2951 2948 2945 2942 2939 2936 2933 2930 2927 2924 2922 2919 2917 2915 2913 2911 2909 2908 2907 2907 2906 2906 2905 2905 2905 2905 2905 2905 2905 2905 2905 2906 2906 2906 2905 2905 2905 2905 2905 2905 2906 2906 2907 2907 2907 2907 2906 2906
3017 3013 3009 3006 3002 2999 2996 2992 2989 2986 2983 2980 2976 2973 2970 2967 2964 2961 2958 2955 2952 2949 2947 2943 2940 2937 2934 2931 2927 2924 2922 2919 2916 2913 2911 2909 2907 2906 2905 2904 2903 2903 2902 2902 2902 2902 2902 2902 2902 2902 2903 2903 2903 2904 2903 2903 2903 2903 2903 2903 2904 2904 2905 2905 2905 2905 2905 2905 2905
3015 3012 3008 3004 3001 2997 2994 2991 2987 2984 2981 2978 2975 2972 2969 2966 2962 2960 2957 2954 2951 2948 2945 2941 2938 2934 2931 2928 2925 2922 2919 2917 2914 2911 2908 2907 2905 2903 2902 2901 2900 2900 2899 2899 2899 2899 2899 2899 2900 2900 2901 2901 2902 2902 2902 2901 2901 2901 2901 2902 2902 2903 2904 2904 2904 2904 2904 2903 2903
3014 3010 3006 3003 2999 2996 2992 2989 2986 2983 2980 2977 2974 2971 2968 2965 2962 2959 2956 2953 2950 2947 2943 2939 2936 2932 2929 2926 2923 2920 2917 2914 2912 2909 2907 2904 2902 2901 2899 2898 2897 2897 2897 2897 2897 2897 2897 2897 2898 2898 2899 2900 2900 2900 2900 2899 2899 2899 2900 2901 2902 2902 2903 2903 2902 2902 2902 2902 2902
3012 3008 3005 3001 2998 2995 2992 2988 2985 2982 2979 2976 2973 2970 2967 2964 2961 2958 2955 2952 2948 2945 2941 2938 2934 2931 2927 2924 2922 2918 2916 2913 2910 2907 2905 2903 2901 2899 2897 2896 2895 2895 2894 2894 2895 2895 2895 2896 2897 2897 2898 2898 2898 2898 2898 2898 2898 2899 2899 2901 2901 2902 2902 2902 2901 2901 2901 2901 2901
3011 3007 3003 3000 2997 2994 2991 2987 2984 2981 2978 2975 2972 2969 2966 2963 2960 2957 2954 2951 2947 2943 2939 2936 2933 2930 2927 2923 2920 2917 2915 2912 2909 2907 2904 2902 2900 2898 2897 2895 2894 2893 2893 2893 2893 2894 2894 2895 2896 2896 2897 2897 2897 2897 2897 2897 2897 2898 2899 2900 2900 2900 2900 2901 2900 2900 2900 2900 2900
3010 3006 3003 3000 2997 2993 2990 2987 2983 2980 2977 2974 2971 2968 2965 2962 2959 2956 2953 2949 2945 2942 2938 2935 2932 2929 2926 2923 2920 2917 2915 2912 2909 2907 2904 2902 2900 2898 2897 2895 2894 2893 2893 2892 2892 2893 2893 2894 2895 2896 2896 2897 2897 2897 2897 2897 2898 2898 2899 2899 2900 2900 2900 2900 2900 2900 2900 2899 2899
3009 3006 3002 2999 2996 2993 2989 2986 2983 2979 2976 2973 2970 2967 2964 2961 2958 2955 2952 2948 2944 2941 2938 2935 2932 2929 2926 2923 2921 2918 2915 2912 2910 2907 2905 2903 2901 2899 2898 2897 2896 2895 2894 2893 2893 2893 2893 2894 2894 2895 2896 2896 2896 2896 2897 2897 2897 2898 2898 2899 2899 2899 2900 2900 2900 2900 2899 2899 2899
3009 3006 3002 2999 2995 2992 2989 2985 2982 2978 2975 2972 2969 2966 2963 2960 2957 2954 2951 2947 2944 2941 2938 2935 2932 2929 2927 2924 2921 2919 2916 2913 2911 2909 2907 2905 2903 2901 2900 2898 2897 2897 2896 2895 2894 2894 2894 2894 2894 2895 2895 2895 2896 2896 2896 2897 2897 2897 2897 2898 2899 2899 2900 2900 2900 2900 2900 2899 2899
3009 3005 3002 2998 2995 2991 2988 2984 2981 2977 2974 2971 2968 2966 2963 2960 2957 2953 2950 2947 2943 2941 2938 2936 2933 2930 2927 2925 2922 2920 2917 2915 2913 2911 2908 2907 2905 2903 2902 2900 2899 2897 2897 2896 2895 2894 2894 2894 2894 2894 2894 2895 2895 2895 2895 2896 2896 2897 2897 2898 2899 2899 2899 2900 2900 2900 2900 2899 2899
3009 3005 3001 2998 2994 2991 2987 2983 2980 2977 2974 2971 2968 2965 2962 2959 2956 2953 2950 2947 2944 2941 2939 2937 2934 2931 2929 2926 2924 2922 2919 2917 2914 2912 2910 2908 2906 2904 2902 2900 2898 2897 2896 2895 2894 2894 2894 2894 2894 2893 2893 2894 2894 2894 2894 2895 2896 2897 2897 2898 2899 2899 2899 2899 2899 2899 2899 2899 2899
3008 3005 3001 2997 2993 2990 2986 2983 2979 2976 2973 2970 2967 2965 2962 2959 2956 2953 2950 2947 2944 2942 2940 2937 2935 2933 2930 2928 2925 2923 2921 2918 2916 2913 2911 2908 2906 2903 2901 2899 2897 2895 2894 2893 2893 2893 2893 2893 2892 2892 2892 2892 2893 2894 2895 2896 2897 2897 2898 2898 2899 2899 2899 2899 2899 2899 2899 2900 2900
3008 3004 3000 2997 2993 2989 2986 2982 2979 2976 2972 2970 2967 2964 2962 2959 2956 2953 2950 2947 2945 2942 2941 2938 2936 2934 2932 2929 2927 2925 2922 2920 2917 2915 2912 2909 2906 2903 2900 2897 2895 2893 2892 2892 2892 2892 2892 2892 2891 2892 2892 2893 2894 2895 2896 2897 2897 2897 2898 2898 2898 2898 2899 2899 2900 2900 2900 2900 2899
3008 3004 3000 2996 2992 2989 2985 2982 2978 2975 2972 2969 2967 2964 2961 2959 2956 2953 2950 2948 2945 2943 2942 2939 2937 2935 2933 2931 2929 2927 2924 2921 2919 2916 2913 2910 2907 2903 2899 2896 2893 2892 2892 2891 2891 2891 2891 2891 2892 2893 2893 2894 2895 2896 2897 2897 2897 2898 2898 2898 2898 2899 2899 2900 2900 2900 2900 2900 2899
3008 3004 3000 2996 2992 2988 2985 2981 2978 2975 2972 2969 2967 2964 2961 2959 2956 2953 2951 2948 2946 2944 2942 2940 2938 2937 2935 2933 2931 2928 2926 2923 2920 2917 2914 2911 2907 2902 2899 2897 2895 2893 2893 2892 2892 2892 2892 2893 2894 2894 2895 2896 2896 2897 2897 2898 2898 2898 2899 2899 2899 2900 2900 2900 2900 2900 2900 2900 2899
3007 3003 2999 2996 2992 2988 2984 2981 2978 2975 2972 2969 2967 2964 2962 2959 2957 2954 2952 2949 2947 2946 2944 2942 2939 2938 2936 2934 2932 2930 2927 2924 2921 2918 2916 2912 2907 2903 2901 2899 2897 2896 2895 2894 2894 2894 2894 2895 2895 2896 2896 2897 2897 2898 2898 2899 2899 2900 2900 2900 2901 2901 2901 2901 2901 2901 2901 2900 2899
3007 3003 2999 2995 2992 2988 2984 2981 2978 2975 2972 2969 2967 2964 2962 2959 2957 2954 2952 2950 2948 2947 2945 2943 2941 2939 2937 2936 2934 2931 2929 2926 2923 2921 2918 2915 2910 2907 2904 2902 2901 2900 2899 2897 2897 2896 2896 2897 2897 2897 2898 2898 2899 2899 2900 2900 2900 2901 2901 2901 2901 2902 2902 2902 2902 2902 2901 2901 2900
3007 3003 2999 2995 2992 2988 2984 2981 2978 2975 2972 2970 2967 2965 2962 2960 2958 2955 2953 2951 2949 2947 2946 2944 2942 2940 2939 2937 2935 2933 2931 2928 2925 2923 2921 2917 2914 2911 2908 2906 2904 2903 2902 2901 2899 2899 2899 2899 2899 2899 2899 2899 2900 2900 2901 2901 2901 2901 2902 2902 2903 2903 2903 2903 2902 2902 2901 2901 2900
3007 3003 2999 2995 2992 2988 2985 2981 2978 2975 2972 2970 2967 2965 2963 2961 2958 2956 2954 2952 2950 2948 2947 2945 2943 2942 2940 2939 2937 2935 2932 2930 2927 2925 2923 2920 2917 2915 2912 2910 2908 2907 2906 2904 2902 2902 2901 2900 2900 2900 2900 2901 2901 2901 2902 2902 2902 2903 2903 2903 2904 2904 2903 2903 2902 2902 2901 2901 2900
3007 3003 2999 2996 2992 2988 2985 2981 2978 2975 2973 2970 2968 2966 2964 2961 2959 2957 2954 2952 2951 2949 2947 2946 2944 2942 2941 2940 2938 2936 2934 2932 2929 2927 2925 2923 2921 2918 2916 2915 2914 2912 2910 2908 2907 2905 2904 2903 2902 2902 2902 2903 2903 2903 2904 2904 2904 2904 2904 2904 2904 2904 2904 2903 2903 2902 2902 2901 2900
3007 3004 3000 2996 2992 2989 2985 2982 2979 2976 2973 2971 2969 2967 2964 2962 2960 2958 2956 2953 2951 2950 2948 2946 2945 2943 2942 2941 2939 2938 2936 2934 2932 2930 2928 2926 2924 2921 2919 2917 2918 2917 2915 2913 2912 2910 2909 2907 2907 2906 2906 2906 2907 2907 2907 2906 2906 2906 2906 2905 2905 2905 2904 2904 2903 2902 2902 2901 2900
3008 3004 3000 2997 2993 2989 2986 2982 2979 2977 2974 2972 2969 2967 2965 2963 2961 2959 2957 2954 2952 2950 2949 2947 2945 2944 2943 2942 2940 2939 2937 2935 2933 2932 2930 2928 2926 2924 2922 2919 2919 2920 2919 2917 2916 2915 2913 2912 2911 2910 2909 2909 2909 2909 2908 2908 2907 2907 2907 2906 2906 2905 2905 2904 2903 2903 2902 2902 2901
3008 3005 3001 2997 2993 2990 2986 2983 2980 2977 2974 2972 2970 2967 2965 2963 2962 2959 2957 2955 2953 2951 2949 2948 2946 2945 2944 2943 2941 2940 2938 2937 2935 2933 2932 2930 2928 2926 2924 2922 2920 2920 2921 2921 2919 2917 2916 2915 2913 2912 2912 2912 2911 2911 2910 2909 2909 2908 2907 2907 2906 2906 2905 2905 2904 2903 2903 2902 2901
3009 3005 3002 2998 2994 2990 2987 2983 2981 2978 2975 2972 2970 2968 2966 2964 2962 2960 2958 2956 2954 2952 2950 2949 2947 2946 2945 2943 2942 2941 2939 2938 2937 2935 2933 2931 2930 2928 2927 2925 2922 2921 2921 2921 2921 2920 2918 2917 2915 2915 2914 2913 2913 2912 2911 2911 2910 2909 2908 2908 2907 2907 2906 2905 2905 2904 2903 2902 2902
3010 3006 3002 2998 2995 2991 2987 2984 2981 2978 2976 2973 2971 2969 2967 2965 2963 2961 2959 2957 2955 2953 2951 2949 2948 2947 2945 2944 2943 2942 2940 2939 2937 2936 2934 2932 2931 2930 2928 2927 2925 2923 2922 2922 2922 2921 2920 2918 2917 2917 2916 2915 2914 2913 2913 2912 2911 2910 2910 2909 2908 2907 2907 2906 2905 2905 2904 2903 2902
3010 3007 3003 2999 2996 2992 2988 2985 2982 2979 2977 2974 2972 2970 2967 2966 2964 2962 2960 2958 2956 2954 2952 2950 2949 2947 2946 2945 2943 2942 2941 2940 2939 2937 2935 2933 2932 2931 2930 2928 2926 2925 2924 2923 2923 2922 2921 2920 2919 2918 2917 2916 2915 2915 2914 2913 2912 2911 2910 2910 2909 2908 2907 2906 2906 2905 2904 2903 2902
3011 3007 3004 3000 2996 2993 2989 2986 2983 2980 2977 2975 2972 2970 2968 2967 2965 2962 2961 2959 2957 2955 2953 2951 2949 2948 2947 2945 2944 2943 2942 2941 2940 2938 2937 2935 2933 2932 2931 2930 2928 2927 2926 2925 2924 2923 2922 2922 2920 2919 2918 2917 2916 2916 2915 2914 2913 2912 2911 2910 2909 2908 2907 2907 2906 2905 2904 2903 2902
3012 3008 3004 3001 2997 2994 2990 2987 2984 2981 2978 2976 2973 2971 2969 2967 2966 2963 2962 2960 2957 2956 2953 2952 2950 2949 2947 2946 2945 2943 2942 2941 2940 2939 2938 2937 2935 2934 2932 2931 2929 2928 2927 2927 2926 2924 2923 2922 2921 2920 2919 2918 2917 2916 2916 2915 2914 2913 2912 2911 2910 2909 2908 2907 2906 2905 2904 2903 2902
3012 3008 3005 3002 2998 2995 2991 2988 2985 2982 2979 2977 2974 2972 2970 2968 2966 2964 2962 2960 2958 2956 2954 2952 2951 2949 2948 2947 2946 2944 2943 2942 2941 2940 2939 2938 2937 2935 2934 2933 2932 2930 2929 2928 2927 2925 2924 2923 2922 2921 2920 2919 2917 2917 2916 2915 2914 2913 2912 2911 2910 2909 2908 2907 2906 2905 2904 2903 2902
3012 3009 3006 3002 2999 2996 2992 2989 2986 2983 2980 2978 2976 2973 2971 2969 2967 2965 2963 2961 2959 2957 2955 2954 2952 2951 2949 2947 2946 2945 2944 2943 2942 2941 2940 2939 2938 2937 2936 2935 2934 2933 2932 2929 2927 2926 2925 2923 2922 2921 2920 2919 2918 2917 2916 2915 2914 2913 2912 2911 2910 2909 2908 2907 2906 2905 2904 2903 2902
3013 3010 3007 3003 3000 2997 2993 2990 2987 2984 2981 2979 2977 2974 2972 2970 2967 2966 2964 2962 2960 2958 2956 2955 2953 2952 2950 2948 2947 2946 2945 2944 2942 2941 2940 2939 2939 2938 2937 2936 2935 2935 2934 2930 2928 2927 2925 2924 2923 2922 2921 2919 2918 2917 2916 2915 2914 2913 2912 2911 2910 2908 2907 2907 2906 2905 2904 2902 2901
3013 3011 3007 3004 3001 2997 2994 2991 2988 2985 2982 2980 2977 2975 2973 2971 2968 2967 2964 2962 2960 2959 2957 2955 2954 2952 2951 2949 2948 2947 2946 2944 2943 2942 2941 2940 2939 2939 2938 2937 2935 2935 2935 2932 2930 2928 2926 2925 2923 2922 2921 2920 2918 2917 2916 2915 2914 2912 2912 2910 2909 2908 2907 2906 2905 2904 2903 2902 2901
3014 3011 3008 3005 3002 2999 2996 2992 2989 2986 2983 2981 2978 2976 2974 2972 2969 2967 2965 2963 2961 2959 2957 2956 2955 2953 2952 2950 2949 2947 2946 2945 2944 2943 2942 2941 2940 2939 2938 2937 2936 2936 2936 2935 2931 2928 2927 2926 2924 2922 2921 2920 2918 2917 2916 2915 2913 2912 2911 2910 2909 2908 2907 2906 2905 2903 2902 2902 2900
3015 3012 3009 3006 3003 3000 2997 2993 2990 2987 2984 2982 2979 2977 2974 2972 2970 2968 2966 2964 2962 2960 2958 2957 2955 2954 2952 2951 2950 2948 2947 2946 2944 2943 2942 2941 2940 2939 2938 2938 2937 2936 2936 2936 2931 2928 2927 2926 2925 2923 2922 2920 2919 2917 2916 2915 2914 2912 2911 2910 2909 2907 2906 2905 2904 2902 2901 2900 2899
3015 3012 3010 3007 3004 3001 2998 2995 2992 2988 2985 2982 2980 2977 2975 2972 2970 2968 2967 2965 2962 2961 2959 2957 2956 2954 2953 2952 2950 2948 2947 2946 2945 2944 2942 2942 2941 2939 2938 2938 2937 2936 2935 2936 2932 2929 2927 2926 2925 2924 2922 2921 2919 2918 2917 2915 2914 2912 2911 2909 2908 2907 2905 2904 2902 2901 2900 2898 2897
3016 3013 3010 3007 3005 3002 2999 2996 2993 2990 2987 2983 2980 2977 2975 2973 2971 2969 2967 2965 2963 2961 2959 2958 2956 2954 2953 2952 2950 2949 2947 2946 2945 2944 2943 2942 2940 2939 2938 2938 2937 2936 2935 2935 2933 2930 2927 2926 2925 2924 2922 2920 2919 2918 2916 2915 2913 2912 2911 2909 2907 2906 2904 2902 2901 2899 2898 2897 2896
3016 3014 3011 3008 3005 3002 3000 2997 2994 2991 2988 2985 2982 2978 2976 2973 2971 2969 2967 2965 2963 2962 2960 2958 2956 2955 2953 2952 2950 2949 2947 2946 2945 2944 2943 2942 2940 2939 2938 2937 2937 2936 2935 2934 2934 2932 2928 2925 2924 2923 2922 2920 2918 2917 2916 2915 2913 2912 2910 2908 2907 2905 2903 2902 2900 2898 2897 2896 2894
3017 3014 3012 3009 3006 3003 3000 2997 2995 2992 2989 2986 2982 2979 2977 2974 2972 2969 2967 2966 2964 2962 2960 2958 2957 2955 2954 2952 2951 2949 2948 2947 2945 2944 2943 2942 2940 2939 2938 2937 2936 2935 2934 2933 2933 2932 2930 2927 2924 2922 2921 2920 2918 2917 2915 2914 2912 2911 2909 2908 2906 2904 2903 2901 2899 2898 2896 2895 2893
3018 3015 3012 3010 3007 3004 3001 2998 2996 2993 2990 2987 2984 2981 2977 2975 2972 2970 2968 2966 2964 2963 2961 2959 2957 2956 2954 2952 2951 2949 2948 2947 2945 2944 2943 2942 2940 2939 2938 2937 2936 2935 2934 2933 2932 2931 2930 2929 2925 2922 2920 2920 2918 2917 2915 2914 2912 2910 2909 2907 2905 2904 2902 2901 2899 2897 2896 2894 2893
3019 3016 3013 3011 3008 3005 3002 2999 2997 2994 2991 2988 2985 2982 2979 2976 2973 2971 2969 2967 2965 2963 2962 2960 2958 2956 2954 2953 2951 2950 2948 2947 2945 2944 2942 2942 2940 2939 2938 2937 2936 2935 2933 2932 2931 2929 2928 2928 2927 2924 2920 2919 2918 2917 2915 2913 2911 2910 2908 2906 2905 2903 2902 2900 2899 2897 2896 2894 2892